"datetime","temp","dp","rain_mm","uv","solar","mb","wind_mph","gust_mph","windchill","rh"
"2023-05-12 00:00:00",8.3,7.5,0.0,0.0,0,1017.5,0,1,"",95
"2023-05-12 00:01:00",8.3,7.5,0.0,0.0,0,1017.4,0,1,"",95
"2023-05-12 00:02:00",8.4,7.6,0.0,0.0,0,1017.4,0,1,"",95
"2023-05-12 00:03:00",8.4,7.6,0.0,0.0,0,1017.5,0,1,"",95
"2023-05-12 00:04:00",8.3,7.5,0.0,0.0,0,1017.5,0,1,"",95
"2023-05-12 00:05:00",8.2,7.4,0.0,0.0,0,1017.5,0,1,"",95
"2023-05-12 00:06:00",8.2,7.4,0.0,0.0,0,1017.5,0,1,"",95
"2023-05-12 00:07:00",8.2,7.4,0.0,0.0,0,1017.5,0,0,"",95
"2023-05-12 00:08:00",8.2,7.3,0.0,0.0,0,1017.5,0,1,"",94
"2023-05-12 00:09:00",8.2,7.3,0.0,0.0,0,1017.5,0,1,"",94
"2023-05-12 00:10:00",8.2,7.3,0.0,0.0,0,1017.6,0,1,"",94
"2023-05-12 00:11:00",8.2,7.4,0.0,0.0,0,1017.5,0,1,"",95
"2023-05-12 00:12:00",8.2,7.4,0.0,0.0,0,1017.5,0,1,"",95
"2023-05-12 00:13:00",8.2,7.4,0.0,0.0,0,1017.6,0,0,"",95
"2023-05-12 00:14:00",8.2,7.4,0.0,0.0,0,1017.6,0,0,"",95
"2023-05-12 00:15:00",8.2,7.4,0.0,0.0,0,1017.6,0,0,"",95
"2023-05-12 00:16:00",8.1,7.3,0.0,0.0,0,1017.6,0,0,"",95
"2023-05-12 00:17:00",8.1,7.3,0.0,0.0,0,1017.6,0,1,"",95
"2023-05-12 00:18:00",8.0,7.1,0.0,0.0,0,1017.6,0,1,"",94
"2023-05-12 00:19:00",7.9,7.1,0.0,0.0,0,1017.6,0,1,"",95
"2023-05-12 00:20:00",7.9,7.1,0.0,0.0,0,1017.6,0,1,"",95
"2023-05-12 00:21:00",7.9,7.1,0.0,0.0,0,1017.6,0,1,"",95
"2023-05-12 00:22:00",7.9,7.1,0.0,0.0,0,1017.6,0,1,"",95
"2023-05-12 00:23:00",7.9,7.1,0.0,0.0,0,1017.6,0,1,"",95
"2023-05-12 00:24:00",7.9,7.1,0.0,0.0,0,1017.7,0,0,"",95
"2023-05-12 00:25:00",7.9,7.1,0.0,0.0,0,1017.7,0,0,"",95
"2023-05-12 00:26:00",7.9,7.1,0.0,0.0,0,1017.6,0,0,"",95
"2023-05-12 00:27:00",7.9,7.1,0.0,0.0,0,1017.6,0,0,"",95
"2023-05-12 00:28:00",7.9,7.1,0.0,0.0,0,1017.6,0,0,"",95
"2023-05-12 00:29:00",7.9,7.1,0.0,0.0,0,1017.6,0,0,"",95
"2023-05-12 00:30:00",7.9,7.1,0.0,0.0,0,1017.7,0,1,"",95
"2023-05-12 00:31:00",7.8,7.0,0.0,0.0,0,1017.7,0,1,"",95
"2023-05-12 00:32:00",7.8,6.9,0.0,0.0,0,1017.6,0,0,"",94
"2023-05-12 00:33:00",7.8,7.0,0.0,0.0,0,1017.6,0,1,"",95
"2023-05-12 00:34:00",7.8,7.0,0.0,0.0,0,1017.6,0,1,"",95
"2023-05-12 00:35:00",7.8,7.0,0.0,0.0,0,1017.6,0,0,"",95
"2023-05-12 00:36:00",7.8,7.0,0.0,0.0,0,1017.7,0,0,"",95
"2023-05-12 00:37:00",7.8,7.0,0.0,0.0,0,1017.7,0,0,"",95
"2023-05-12 00:38:00",7.8,7.0,0.0,0.0,0,1017.7,0,0,"",95
"2023-05-12 00:39:00",7.8,7.0,0.0,0.0,0,1017.7,0,0,"",95
"2023-05-12 00:40:00",7.8,7.0,0.0,0.0,0,1017.7,0,0,"",95
"2023-05-12 00:41:00",7.8,7.0,0.0,0.0,0,1017.7,0,0,"",95
"2023-05-12 00:42:00",7.7,6.9,0.0,0.0,0,1017.6,0,0,"",95
"2023-05-12 00:43:00",7.7,6.9,0.0,0.0,0,1017.6,0,0,"",95
"2023-05-12 00:44:00",7.7,6.9,0.0,0.0,0,1017.7,0,0,"",95
"2023-05-12 00:45:00",7.7,6.9,0.0,0.0,0,1017.7,0,0,"",95
"2023-05-12 00:46:00",7.7,6.9,0.0,0.0,0,1017.7,0,1,"",95
"2023-05-12 00:47:00",7.7,6.9,0.0,0.0,0,1017.7,0,0,"",95
"2023-05-12 00:48:00",7.6,6.9,0.0,0.0,0,1017.6,0,0,"",95
"2023-05-12 00:49:00",7.6,6.9,0.0,0.0,0,1017.7,0,1,"",95
"2023-05-12 00:50:00",7.6,6.9,0.0,0.0,0,1017.7,0,0,"",95
"2023-05-12 00:51:00",7.5,6.8,0.0,0.0,0,1017.6,0,1,"",95
"2023-05-12 00:52:00",7.5,6.8,0.0,0.0,0,1017.7,0,0,"",95
"2023-05-12 00:53:00",7.5,6.8,0.0,0.0,0,1017.7,0,0,"",95
"2023-05-12 00:54:00",7.5,6.8,0.0,0.0,0,1017.7,0,1,"",95
"2023-05-12 00:55:00",7.6,6.9,0.0,0.0,0,1017.7,0,0,"",95
"2023-05-12 00:56:00",7.5,6.8,0.0,0.0,0,1017.8,0,1,"",95
"2023-05-12 00:57:00",7.5,6.8,0.0,0.0,0,1017.7,1,1,"",95
"2023-05-12 00:58:00",7.4,6.7,0.0,0.0,0,1017.7,0,1,"",95
"2023-05-12 00:59:00",7.4,6.7,0.0,0.0,0,1017.7,0,1,"",95
"2023-05-12 01:00:00",7.4,6.7,0.0,0.0,0,1017.7,1,1,"",95
"2023-05-12 01:01:00",7.4,6.7,0.0,0.0,0,1017.7,0,1,"",95
"2023-05-12 01:02:00",7.4,6.7,0.0,0.0,0,1017.7,0,1,"",95
"2023-05-12 01:03:00",7.4,6.7,0.0,0.0,0,1017.7,0,0,"",95
"2023-05-12 01:04:00",7.4,6.7,0.0,0.0,0,1017.7,0,0,"",95
"2023-05-12 01:05:00",7.4,6.7,0.0,0.0,0,1017.7,0,0,"",95
"2023-05-12 01:06:00",7.4,6.7,0.0,0.0,0,1017.7,0,1,"",95
"2023-05-12 01:07:00",7.4,6.7,0.0,0.0,0,1017.7,1,1,"",95
"2023-05-12 01:08:00",7.4,6.7,0.0,0.0,0,1017.7,1,1,"",95
"2023-05-12 01:09:00",7.3,6.6,0.0,0.0,0,1017.7,0,1,"",95
"2023-05-12 01:10:00",7.3,6.6,0.0,0.0,0,1017.7,0,0,"",95
"2023-05-12 01:11:00",7.3,6.6,0.0,0.0,0,1017.7,1,1,"",95
"2023-05-12 01:12:00",7.3,6.6,0.0,0.0,0,1017.8,0,1,"",95
"2023-05-12 01:13:00",7.3,6.6,0.0,0.0,0,1017.8,0,1,"",95
"2023-05-12 01:14:00",7.3,6.6,0.0,0.0,0,1017.8,0,0,"",95
"2023-05-12 01:15:00",7.4,6.7,0.0,0.0,0,1017.8,0,0,"",95
"2023-05-12 01:16:00",7.4,6.7,0.0,0.0,0,1017.8,0,1,"",95
"2023-05-12 01:17:00",7.4,6.7,0.0,0.0,0,1017.8,0,1,"",95
"2023-05-12 01:18:00",7.3,6.6,0.0,0.0,0,1017.8,0,1,"",95
"2023-05-12 01:19:00",7.3,6.6,0.0,0.0,0,1017.8,0,1,"",95
"2023-05-12 01:20:00",7.2,6.5,0.0,0.0,0,1017.8,0,1,"",95
"2023-05-12 01:21:00",7.2,6.5,0.0,0.0,0,1017.8,0,1,"",95
"2023-05-12 01:22:00",7.2,6.5,0.0,0.0,0,1017.8,0,1,"",95
"2023-05-12 01:23:00",7.2,6.5,0.0,0.0,0,1017.7,0,1,"",95
"2023-05-12 01:24:00",7.1,6.4,0.0,0.0,0,1017.7,0,1,"",95
"2023-05-12 01:25:00",7.2,6.5,0.0,0.0,0,1017.8,0,0,"",95
"2023-05-12 01:26:00",7.2,6.5,0.0,0.0,0,1017.8,0,0,"",95
"2023-05-12 01:27:00",7.3,6.6,0.0,0.0,0,1017.8,0,0,"",95
"2023-05-12 01:28:00",7.3,6.6,0.0,0.0,0,1017.8,0,1,"",95
"2023-05-12 01:29:00",7.3,6.6,0.0,0.0,0,1017.8,0,1,"",95
"2023-05-12 01:30:00",7.2,6.5,0.0,0.0,0,1017.8,0,1,"",95
"2023-05-12 01:31:00",7.2,6.5,0.0,0.0,0,1017.8,0,1,"",95
"2023-05-12 01:32:00",7.2,6.5,0.0,0.0,0,1017.8,1,1,"",95
"2023-05-12 01:33:00",7.1,6.4,0.0,0.0,0,1017.8,1,1,"",95
"2023-05-12 01:34:00",7.1,6.4,0.0,0.0,0,1017.8,1,1,"",95
"2023-05-12 01:35:00",7.1,6.4,0.0,0.0,0,1017.8,0,1,"",95
"2023-05-12 01:36:00",7.1,6.4,0.0,0.0,0,1017.8,0,1,"",95
"2023-05-12 01:37:00",7.1,6.4,0.0,0.0,0,1017.8,0,1,"",95
"2023-05-12 01:38:00",7.1,6.4,0.0,0.0,0,1017.8,0,1,"",95
"2023-05-12 01:39:00",7.1,6.4,0.0,0.0,0,1017.8,1,1,"",95
"2023-05-12 01:40:00",7.0,6.3,0.0,0.0,0,1017.8,0,1,"",95
"2023-05-12 01:41:00",7.1,6.4,0.0,0.0,0,1017.8,0,1,"",95
"2023-05-12 01:42:00",7.1,6.4,0.0,0.0,0,1017.8,0,1,"",95
"2023-05-12 01:43:00",7.0,6.3,0.0,0.0,0,1017.9,0,0,"",95
"2023-05-12 01:44:00",7.0,6.3,0.0,0.0,0,1017.9,0,1,"",95
"2023-05-12 01:45:00",7.0,6.3,0.0,0.0,0,1017.9,0,1,"",95
"2023-05-12 01:46:00",6.9,6.2,0.0,0.0,0,1017.8,1,1,"",95
"2023-05-12 01:47:00",6.9,6.2,0.0,0.0,0,1017.9,0,1,"",95
"2023-05-12 01:48:00",6.9,6.2,0.0,0.0,0,1017.9,1,1,"",95
"2023-05-12 01:49:00",6.9,6.2,0.0,0.0,0,1017.9,0,0,"",95
"2023-05-12 01:50:00",6.9,6.2,0.0,0.0,0,1017.9,0,1,"",95
"2023-05-12 01:51:00",6.9,6.2,0.0,0.0,0,1017.9,0,1,"",95
"2023-05-12 01:52:00",6.9,6.2,0.0,0.0,0,1017.9,0,1,"",95
"2023-05-12 01:53:00",6.9,6.2,0.0,0.0,0,1017.9,0,1,"",95
"2023-05-12 01:54:00",6.9,6.2,0.0,0.0,0,1018.0,0,1,"",95
"2023-05-12 01:55:00",6.8,6.1,0.0,0.0,0,1018.0,0,1,"",95
"2023-05-12 01:56:00",6.8,6.1,0.0,0.0,0,1018.0,0,0,"",95
"2023-05-12 01:57:00",6.8,6.1,0.0,0.0,0,1018.1,0,1,"",95
"2023-05-12 01:58:00",6.8,6.1,0.0,0.0,0,1018.0,0,1,"",95
"2023-05-12 01:59:00",6.8,6.1,0.0,0.0,0,1018.0,0,2,"",95
"2023-05-12 02:00:00",6.8,6.1,0.0,0.0,0,1018.0,1,1,"",95
"2023-05-12 02:01:00",6.8,6.1,0.0,0.0,0,1018.0,1,1,"",95
"2023-05-12 02:02:00",6.9,6.2,0.0,0.0,0,1018.0,1,1,"",95
"2023-05-12 02:03:00",6.8,6.1,0.0,0.0,0,1018.0,1,2,"",95
"2023-05-12 02:04:00",6.9,6.2,0.0,0.0,0,1018.1,0,1,"",95
"2023-05-12 02:05:00",6.9,6.2,0.0,0.0,0,1018.1,0,1,"",95
"2023-05-12 02:06:00",6.9,6.2,0.0,0.0,0,1018.1,0,1,"",95
"2023-05-12 02:07:00",6.9,6.2,0.0,0.0,0,1018.1,1,1,"",95
"2023-05-12 02:08:00",6.9,6.2,0.0,0.0,0,1018.1,1,1,"",95
"2023-05-12 02:09:00",6.8,6.1,0.0,0.0,0,1018.1,1,1,"",95
"2023-05-12 02:10:00",6.8,6.1,0.0,0.0,0,1018.1,1,1,"",95
"2023-05-12 02:11:00",6.8,6.1,0.0,0.0,0,1018.2,0,1,"",95
"2023-05-12 02:12:00",6.8,6.1,0.0,0.0,0,1018.2,1,1,"",95
"2023-05-12 02:13:00",6.8,6.1,0.0,0.0,0,1018.2,1,1,"",95
"2023-05-12 02:14:00",6.8,6.1,0.0,0.0,0,1018.2,1,1,"",95
"2023-05-12 02:15:00",6.8,6.1,0.0,0.0,0,1018.2,1,1,"",95
"2023-05-12 02:16:00",6.8,6.1,0.0,0.0,0,1018.2,1,2,"",95
"2023-05-12 02:17:00",6.8,6.1,0.0,0.0,0,1018.2,0,1,"",95
"2023-05-12 02:18:00",6.8,6.1,0.0,0.0,0,1018.2,1,1,"",95
"2023-05-12 02:19:00",6.8,6.1,0.0,0.0,0,1018.2,0,1,"",95
"2023-05-12 02:20:00",6.8,6.1,0.0,0.0,0,1018.2,0,1,"",95
"2023-05-12 02:21:00",6.8,6.1,0.0,0.0,0,1018.2,0,1,"",95
"2023-05-12 02:22:00",6.8,6.1,0.0,0.0,0,1018.2,0,1,"",95
"2023-05-12 02:23:00",6.8,6.1,0.0,0.0,0,1018.2,1,1,"",95
"2023-05-12 02:24:00",6.7,6.0,0.0,0.0,0,1018.2,1,1,"",95
"2023-05-12 02:25:00",6.7,6.0,0.0,0.0,0,1018.2,1,1,"",95
"2023-05-12 02:26:00",6.7,6.0,0.0,0.0,0,1018.3,1,1,"",95
"2023-05-12 02:27:00",6.7,6.0,0.0,0.0,0,1018.3,0,1,"",95
"2023-05-12 02:28:00",6.7,6.0,0.0,0.0,0,1018.3,1,1,"",95
"2023-05-12 02:29:00",6.7,6.0,0.0,0.0,0,1018.2,1,1,"",95
"2023-05-12 02:30:00",6.6,5.9,0.0,0.0,0,1018.2,1,1,"",95
"2023-05-12 02:31:00",6.6,5.9,0.0,0.0,0,1018.3,1,1,"",95
"2023-05-12 02:32:00",6.6,5.9,0.0,0.0,0,1018.2,1,1,"",95
"2023-05-12 02:33:00",6.6,5.9,0.0,0.0,0,1018.3,0,1,"",95
"2023-05-12 02:34:00",6.7,6.0,0.0,0.0,0,1018.3,0,1,"",95
"2023-05-12 02:35:00",6.7,6.0,0.0,0.0,0,1018.2,0,1,"",95
"2023-05-12 02:36:00",6.7,6.0,0.0,0.0,0,1018.3,0,1,"",95
"2023-05-12 02:37:00",6.6,5.9,0.0,0.0,0,1018.2,1,1,"",95
"2023-05-12 02:38:00",6.6,5.9,0.0,0.0,0,1018.3,0,1,"",95
"2023-05-12 02:39:00",6.6,5.9,0.0,0.0,0,1018.3,0,1,"",95
"2023-05-12 02:40:00",6.6,5.9,0.0,0.0,0,1018.3,0,1,"",95
"2023-05-12 02:41:00",6.6,5.9,0.0,0.0,0,1018.3,0,1,"",95
"2023-05-12 02:42:00",6.6,5.9,0.0,0.0,0,1018.3,0,0,"",95
"2023-05-12 02:43:00",6.7,6.0,0.0,0.0,0,1018.3,0,1,"",95
"2023-05-12 02:44:00",6.7,6.0,0.0,0.0,0,1018.3,0,1,"",95
"2023-05-12 02:45:00",6.7,6.0,0.0,0.0,0,1018.3,0,0,"",95
"2023-05-12 02:46:00",6.6,5.9,0.0,0.0,0,1018.4,0,0,"",95
"2023-05-12 02:47:00",6.6,5.9,0.0,0.0,0,1018.3,0,0,"",95
"2023-05-12 02:48:00",6.6,5.9,0.0,0.0,0,1018.4,0,1,"",95
"2023-05-12 02:49:00",6.6,5.9,0.0,0.0,0,1018.4,0,1,"",95
"2023-05-12 02:50:00",6.6,5.9,0.0,0.0,0,1018.4,0,1,"",95
"2023-05-12 02:51:00",6.6,5.9,0.0,0.0,0,1018.3,0,1,"",95
"2023-05-12 02:52:00",6.6,5.9,0.0,0.0,0,1018.4,0,1,"",95
"2023-05-12 02:53:00",6.6,5.9,0.0,0.0,0,1018.4,0,1,"",95
"2023-05-12 02:54:00",6.6,5.9,0.0,0.0,0,1018.4,0,0,"",95
"2023-05-12 02:55:00",6.6,5.9,0.0,0.0,0,1018.4,0,0,"",95
"2023-05-12 02:56:00",6.6,5.9,0.0,0.0,0,1018.4,0,0,"",95
"2023-05-12 02:57:00",6.6,5.9,0.0,0.0,0,1018.4,0,0,"",95
"2023-05-12 02:58:00",6.6,5.9,0.2,0.0,0,1018.4,0,0,"",95
"2023-05-12 02:59:00",6.6,5.9,0.2,0.0,0,1018.4,0,0,"",95
"2023-05-12 03:00:00",6.5,5.8,0.2,0.0,0,1018.4,0,0,"",95
"2023-05-12 03:01:00",6.5,5.8,0.2,0.0,0,1018.4,0,0,"",95
"2023-05-12 03:02:00",6.4,5.7,0.2,0.0,0,1018.4,0,0,"",95
"2023-05-12 03:03:00",6.4,5.7,0.2,0.0,0,1018.4,0,0,"",95
"2023-05-12 03:04:00",6.5,5.8,0.2,0.0,0,1018.4,0,0,"",95
"2023-05-12 03:05:00",6.4,5.7,0.2,0.0,0,1018.4,0,1,"",95
"2023-05-12 03:06:00",6.4,5.7,0.2,0.0,0,1018.5,0,1,"",95
"2023-05-12 03:07:00",6.5,5.8,0.2,0.0,0,1018.5,0,1,"",95
"2023-05-12 03:08:00",6.4,5.7,0.2,0.0,0,1018.5,0,1,"",95
"2023-05-12 03:09:00",6.4,5.7,0.2,0.0,0,1018.5,0,1,"",95
"2023-05-12 03:10:00",6.4,5.7,0.2,0.0,0,1018.5,0,1,"",95
"2023-05-12 03:11:00",6.4,5.7,0.2,0.0,0,1018.5,0,1,"",95
"2023-05-12 03:12:00",6.3,5.6,0.2,0.0,0,1018.5,0,0,"",95
"2023-05-12 03:13:00",6.4,5.7,0.2,0.0,0,1018.5,0,0,"",95
"2023-05-12 03:14:00",6.4,5.7,0.2,0.0,0,1018.5,0,0,"",95
"2023-05-12 03:15:00",6.3,5.6,0.2,0.0,0,1018.5,0,1,"",95
"2023-05-12 03:16:00",6.3,5.6,0.2,0.0,0,1018.5,0,1,"",95
"2023-05-12 03:17:00",6.3,5.6,0.2,0.0,0,1018.5,0,1,"",95
"2023-05-12 03:18:00",6.3,5.6,0.2,0.0,0,1018.5,1,1,"",95
"2023-05-12 03:19:00",6.3,5.6,0.2,0.0,0,1018.5,1,1,"",95
"2023-05-12 03:20:00",6.2,5.5,0.2,0.0,0,1018.6,1,1,"",95
"2023-05-12 03:21:00",6.2,5.5,0.2,0.0,0,1018.5,0,1,"",95
"2023-05-12 03:22:00",6.2,5.5,0.2,0.0,0,1018.6,0,1,"",95
"2023-05-12 03:23:00",6.2,5.5,0.2,0.0,0,1018.6,1,1,"",95
"2023-05-12 03:24:00",6.2,5.5,0.2,0.0,0,1018.6,1,1,"",95
"2023-05-12 03:25:00",6.3,5.6,0.2,0.0,0,1018.6,0,0,"",95
"2023-05-12 03:26:00",6.3,5.6,0.2,0.0,0,1018.6,0,1,"",95
"2023-05-12 03:27:00",6.3,5.6,0.2,0.0,0,1018.6,1,2,"",95
"2023-05-12 03:28:00",6.3,5.6,0.2,0.0,0,1018.6,1,2,"",95
"2023-05-12 03:29:00",6.3,5.6,0.2,0.0,0,1018.6,1,1,"",95
"2023-05-12 03:30:00",6.3,5.6,0.2,0.0,0,1018.6,0,1,"",95
"2023-05-12 03:31:00",6.3,5.6,0.2,0.0,0,1018.6,0,0,"",95
"2023-05-12 03:32:00",6.3,5.6,0.2,0.0,0,1018.6,0,1,"",95
"2023-05-12 03:33:00",6.3,5.6,0.2,0.0,0,1018.6,0,1,"",95
"2023-05-12 03:34:00",6.3,5.6,0.2,0.0,0,1018.6,0,0,"",95
"2023-05-12 03:35:00",6.3,5.6,0.2,0.0,0,1018.6,0,0,"",95
"2023-05-12 03:36:00",6.3,5.6,0.2,0.0,0,1018.7,0,0,"",95
"2023-05-12 03:37:00",6.3,5.6,0.2,0.0,0,1018.6,0,1,"",95
"2023-05-12 03:38:00",6.3,5.6,0.2,0.0,0,1018.6,1,1,"",95
"2023-05-12 03:39:00",6.3,5.6,0.2,0.0,0,1018.6,0,1,"",95
"2023-05-12 03:40:00",6.3,5.6,0.2,0.0,0,1018.7,0,1,"",95
"2023-05-12 03:41:00",6.2,5.5,0.2,0.0,0,1018.6,0,1,"",95
"2023-05-12 03:42:00",6.3,5.6,0.2,0.0,0,1018.6,0,1,"",95
"2023-05-12 03:43:00",6.3,5.6,0.2,0.0,0,1018.6,1,2,"",95
"2023-05-12 03:44:00",6.2,5.5,0.2,0.0,0,1018.7,0,1,"",95
"2023-05-12 03:45:00",6.2,5.5,0.2,0.0,0,1018.6,0,1,"",95
"2023-05-12 03:46:00",6.3,5.6,0.2,0.0,0,1018.7,0,1,"",95
"2023-05-12 03:47:00",6.3,5.6,0.2,0.0,0,1018.7,0,0,"",95
"2023-05-12 03:48:00",6.3,5.6,0.2,0.0,0,1018.7,0,1,"",95
"2023-05-12 03:49:00",6.3,5.6,0.2,0.0,0,1018.7,0,1,"",95
"2023-05-12 03:50:00",6.3,5.6,0.2,0.0,0,1018.7,0,1,"",95
"2023-05-12 03:51:00",6.2,5.5,0.2,0.0,0,1018.7,0,1,"",95
"2023-05-12 03:52:00",6.2,5.5,0.2,0.0,0,1018.8,0,1,"",95
"2023-05-12 03:53:00",6.2,5.5,0.2,0.0,0,1018.7,0,1,"",95
"2023-05-12 03:54:00",6.2,5.5,0.2,0.0,0,1018.7,0,1,"",95
"2023-05-12 03:55:00",6.2,5.5,0.2,0.0,0,1018.8,1,1,"",95
"2023-05-12 03:56:00",6.2,5.5,0.2,0.0,0,1018.8,0,1,"",95
"2023-05-12 03:57:00",6.2,5.5,0.2,0.0,0,1018.8,0,1,"",95
"2023-05-12 03:58:00",6.2,5.5,0.2,0.0,0,1018.8,0,1,"",95
"2023-05-12 03:59:00",6.2,5.5,0.2,0.0,0,1018.8,0,1,"",95
"2023-05-12 04:00:00",6.2,5.5,0.2,0.0,0,1018.8,0,1,"",95
"2023-05-12 04:01:00",6.2,5.5,0.2,0.0,0,1018.8,0,0,"",95
"2023-05-12 04:02:00",6.2,5.5,0.2,0.0,0,1018.8,0,1,"",95
"2023-05-12 04:03:00",6.2,5.5,0.2,0.0,0,1018.8,1,1,"",95
"2023-05-12 04:04:00",6.2,5.5,0.2,0.0,0,1018.8,1,1,"",95
"2023-05-12 04:05:00",6.2,5.5,0.2,0.0,0,1018.8,0,1,"",95
"2023-05-12 04:06:00",6.2,5.5,0.2,0.0,0,1018.8,1,2,"",95
"2023-05-12 04:07:00",6.2,5.5,0.2,0.0,0,1018.8,0,1,"",95
"2023-05-12 04:08:00",6.2,5.5,0.2,0.0,0,1018.8,0,1,"",95
"2023-05-12 04:09:00",6.2,5.5,0.2,0.0,0,1018.8,0,1,"",95
"2023-05-12 04:10:00",6.2,5.5,0.2,0.0,0,1018.9,0,1,"",95
"2023-05-12 04:11:00",6.2,5.5,0.2,0.0,0,1018.8,0,1,"",95
"2023-05-12 04:12:00",6.2,5.5,0.2,0.0,0,1018.8,0,1,"",95
"2023-05-12 04:13:00",6.2,5.5,0.2,0.0,0,1018.8,0,1,"",95
"2023-05-12 04:14:00",6.3,5.6,0.2,0.0,0,1018.8,0,1,"",95
"2023-05-12 04:15:00",6.3,5.6,0.2,0.0,0,1018.8,0,1,"",95
"2023-05-12 04:16:00",6.2,5.5,0.2,0.0,0,1018.9,0,0,"",95
"2023-05-12 04:17:00",6.3,5.6,0.2,0.0,0,1018.9,0,0,"",95
"2023-05-12 04:18:00",6.3,5.6,0.2,0.0,0,1018.9,0,0,"",95
"2023-05-12 04:19:00",6.3,5.6,0.2,0.0,0,1018.9,0,0,"",95
"2023-05-12 04:20:00",6.4,5.7,0.2,0.0,0,1018.9,0,1,"",95
"2023-05-12 04:21:00",6.4,5.7,0.2,0.0,0,1018.8,0,1,"",95
"2023-05-12 04:22:00",6.4,5.7,0.2,0.0,0,1018.9,0,1,"",95
"2023-05-12 04:23:00",6.5,5.8,0.2,0.0,0,1018.9,0,1,"",95
"2023-05-12 04:24:00",6.4,5.7,0.2,0.0,0,1018.8,0,1,"",95
"2023-05-12 04:25:00",6.4,5.7,0.2,0.0,0,1018.9,0,1,"",95
"2023-05-12 04:26:00",6.5,5.8,0.2,0.0,0,1018.9,0,0,"",95
"2023-05-12 04:27:00",6.6,5.9,0.2,0.0,0,1018.9,0,0,"",95
"2023-05-12 04:28:00",6.6,5.9,0.2,0.0,0,1018.9,0,1,"",95
"2023-05-12 04:29:00",6.7,6.0,0.2,0.0,0,1018.9,0,1,"",95
"2023-05-12 04:30:00",6.8,6.2,0.2,0.0,0,1018.9,0,1,"",96
"2023-05-12 04:31:00",6.8,6.2,0.2,0.0,0,1018.9,0,0,"",96
"2023-05-12 04:32:00",6.8,6.2,0.2,0.0,0,1018.9,0,0,"",96
"2023-05-12 04:33:00",6.9,6.3,0.2,0.0,0,1018.9,0,1,"",96
"2023-05-12 04:34:00",6.9,6.3,0.2,0.0,0,1018.9,0,0,"",96
"2023-05-12 04:35:00",7.1,6.5,0.2,0.0,0,1018.9,0,0,"",96
"2023-05-12 04:36:00",7.1,6.5,0.2,0.0,0,1019.0,0,1,"",96
"2023-05-12 04:37:00",7.1,6.5,0.2,0.0,0,1019.0,0,0,"",96
"2023-05-12 04:38:00",7.2,6.6,0.2,0.0,0,1019.0,0,0,"",96
"2023-05-12 04:39:00",7.2,6.6,0.2,0.0,0,1019.0,0,0,"",96
"2023-05-12 04:40:00",7.2,6.6,0.2,0.0,0,1019.0,0,1,"",96
"2023-05-12 04:41:00",7.3,6.7,0.2,0.0,0,1019.0,0,1,"",96
"2023-05-12 04:42:00",7.2,6.6,0.2,0.0,0,1019.0,0,1,"",96
"2023-05-12 04:43:00",7.3,6.7,0.2,0.0,0,1019.0,0,1,"",96
"2023-05-12 04:44:00",7.3,6.7,0.2,0.0,0,1019.0,0,1,"",96
"2023-05-12 04:45:00",7.3,6.7,0.2,0.0,0,1019.0,0,0,"",96
"2023-05-12 04:46:00",7.3,6.7,0.2,0.0,0,1019.0,0,1,"",96
"2023-05-12 04:47:00",7.4,6.8,0.2,0.0,0,1019.0,0,1,"",96
"2023-05-12 04:48:00",7.5,6.9,0.2,0.0,0,1019.1,0,1,"",96
"2023-05-12 04:49:00",7.5,6.9,0.2,0.0,0,1019.1,0,1,"",96
"2023-05-12 04:50:00",7.5,6.9,0.2,0.0,0,1019.1,0,1,"",96
"2023-05-12 04:51:00",7.6,7.0,0.2,0.0,0,1019.1,0,0,"",96
"2023-05-12 04:52:00",7.6,7.0,0.2,0.0,0,1019.2,0,1,"",96
"2023-05-12 04:53:00",7.6,7.0,0.2,0.0,0,1019.1,0,0,"",96
"2023-05-12 04:54:00",7.7,7.1,0.2,0.0,0,1019.2,0,0,"",96
"2023-05-12 04:55:00",7.7,7.1,0.2,0.0,0,1019.2,0,1,"",96
"2023-05-12 04:56:00",7.7,7.1,0.2,0.0,0,1019.2,0,0,"",96
"2023-05-12 04:57:00",7.8,7.2,0.2,0.0,0,1019.2,0,1,"",96
"2023-05-12 04:58:00",7.8,7.2,0.2,0.0,0,1019.2,0,1,"",96
"2023-05-12 04:59:00",7.8,7.2,0.2,0.0,0,1019.3,0,1,"",96
"2023-05-12 05:00:00",7.8,7.2,0.2,0.0,0,1019.3,0,0,"",96
"2023-05-12 05:01:00",7.9,7.3,0.2,0.0,0,1019.3,0,0,"",96
"2023-05-12 05:02:00",7.9,7.3,0.2,0.0,0,1019.3,0,1,"",96
"2023-05-12 05:03:00",7.9,7.3,0.2,0.0,0,1019.3,0,1,"",96
"2023-05-12 05:04:00",7.9,7.3,0.2,0.0,0,1019.3,0,1,"",96
"2023-05-12 05:05:00",8.0,7.4,0.2,0.0,0,1019.3,0,0,"",96
"2023-05-12 05:06:00",8.0,7.4,0.2,0.0,0,1019.3,0,1,"",96
"2023-05-12 05:07:00",8.1,7.5,0.2,0.0,0,1019.3,0,0,"",96
"2023-05-12 05:08:00",8.1,7.5,0.2,0.0,0,1019.3,0,0,"",96
"2023-05-12 05:09:00",8.2,7.6,0.2,0.0,0,1019.3,1,3,"",96
"2023-05-12 05:10:00",8.2,7.6,0.2,0.0,0,1019.3,1,2,"",96
"2023-05-12 05:11:00",8.2,7.6,0.2,0.0,0,1019.3,0,0,"",96
"2023-05-12 05:12:00",8.3,7.7,0.2,0.0,0,1019.3,0,0,"",96
"2023-05-12 05:13:00",8.3,7.7,0.2,0.0,0,1019.3,0,1,"",96
"2023-05-12 05:14:00",8.3,7.7,0.2,0.0,0,1019.3,0,1,"",96
"2023-05-12 05:15:00",8.3,7.7,0.2,0.0,0,1019.4,0,2,"",96
"2023-05-12 05:16:00",8.4,7.8,0.2,0.0,0,1019.3,0,1,"",96
"2023-05-12 05:17:00",8.5,7.9,0.2,0.0,0,1019.3,0,1,"",96
"2023-05-12 05:18:00",8.5,7.9,0.2,0.0,0,1019.4,0,1,"",96
"2023-05-12 05:19:00",8.6,8.0,0.2,0.0,0,1019.3,0,1,"",96
"2023-05-12 05:20:00",8.7,8.1,0.2,0.0,0,1019.4,0,1,"",96
"2023-05-12 05:21:00",8.8,8.2,0.2,0.0,0,1019.3,0,1,"",96
"2023-05-12 05:22:00",8.8,8.2,0.2,0.0,0,1019.3,1,2,"",96
"2023-05-12 05:23:00",8.8,8.2,0.2,0.0,0,1019.3,1,2,"",96
"2023-05-12 05:24:00",8.8,8.2,0.2,0.0,0,1019.3,0,2,"",96
"2023-05-12 05:25:00",8.9,8.3,0.2,0.0,0,1019.4,1,2,"",96
"2023-05-12 05:26:00",8.9,8.3,0.2,0.0,0,1019.4,2,3,"",96
"2023-05-12 05:27:00",8.9,8.3,0.2,0.0,0,1019.4,1,2,"",96
"2023-05-12 05:28:00",9.1,8.5,0.2,0.0,0,1019.4,1,2,"",96
"2023-05-12 05:29:00",9.1,8.5,0.2,0.0,0,1019.4,0,1,"",96
"2023-05-12 05:30:00",9.1,8.5,0.2,0.0,0,1019.4,0,1,"",96
"2023-05-12 05:31:00",9.2,8.6,0.2,0.0,0,1019.3,0,1,"",96
"2023-05-12 05:32:00",9.2,8.6,0.2,0.0,0,1019.4,0,2,"",96
"2023-05-12 05:33:00",9.3,8.7,0.2,0.0,0,1019.4,1,2,"",96
"2023-05-12 05:34:00",9.3,8.7,0.2,0.0,0,1019.4,0,1,"",96
"2023-05-12 05:35:00",9.4,8.8,0.2,0.0,0,1019.4,0,1,"",96
"2023-05-12 05:36:00",9.4,8.8,0.2,0.0,0,1019.4,0,1,"",96
"2023-05-12 05:37:00",9.5,8.9,0.2,0.0,0,1019.5,0,1,"",96
"2023-05-12 05:38:00",9.5,8.9,0.2,0.0,0,1019.5,0,1,"",96
"2023-05-12 05:39:00",9.5,8.9,0.2,0.0,0,1019.5,0,1,"",96
"2023-05-12 05:40:00",9.5,8.9,0.2,0.0,0,1019.5,1,3,"",96
"2023-05-12 05:41:00",9.6,9.0,0.2,0.0,0,1019.5,1,2,"",96
"2023-05-12 05:42:00",9.7,9.1,0.2,0.0,0,1019.4,0,1,"",96
"2023-05-12 05:43:00",9.7,9.1,0.2,0.0,0,1019.5,0,1,"",96
"2023-05-12 05:44:00",9.8,9.2,0.2,0.0,0,1019.5,0,1,"",96
"2023-05-12 05:45:00",9.8,9.2,0.2,0.0,5,1019.5,1,2,"",96
"2023-05-12 05:46:00",9.8,9.2,0.2,0.0,0,1019.4,1,2,"",96
"2023-05-12 05:47:00",9.8,9.2,0.2,0.0,0,1019.5,0,1,"",96
"2023-05-12 05:48:00",9.8,9.2,0.2,0.0,5,1019.5,0,1,"",96
"2023-05-12 05:49:00",9.8,9.2,0.2,0.0,5,1019.5,1,2,"",96
"2023-05-12 05:50:00",9.8,9.2,0.2,0.0,5,1019.5,0,1,"",96
"2023-05-12 05:51:00",9.8,9.2,0.2,0.0,5,1019.5,0,0,"",96
"2023-05-12 05:52:00",9.9,9.3,0.2,0.0,0,1019.5,0,1,"",96
"2023-05-12 05:53:00",9.9,9.3,0.2,0.0,5,1019.6,0,1,"",96
"2023-05-12 05:54:00",9.9,9.3,0.2,0.0,5,1019.6,0,1,"",96
"2023-05-12 05:55:00",9.9,9.3,0.2,0.0,5,1019.6,0,1,"",96
"2023-05-12 05:56:00",9.9,9.3,0.2,0.0,5,1019.6,1,4,9.2,96
"2023-05-12 05:57:00",10.0,9.4,0.2,0.0,5,1019.6,2,3,"",96
"2023-05-12 05:58:00",10.0,9.4,0.2,0.0,5,1019.6,1,2,"",96
"2023-05-12 05:59:00",10.0,9.4,0.2,0.0,5,1019.6,0,1,"",96
"2023-05-12 06:00:00",10.1,9.5,0.2,0.0,5,1019.6,1,2,"",96
"2023-05-12 06:01:00",10.1,9.5,0.2,0.0,5,1019.6,1,2,"",96
"2023-05-12 06:02:00",10.1,9.5,0.2,0.0,7,1019.7,2,3,"",96
"2023-05-12 06:03:00",10.1,9.5,0.2,0.0,7,1019.7,1,2,"",96
"2023-05-12 06:04:00",10.1,9.5,0.2,0.0,5,1019.7,1,2,"",96
"2023-05-12 06:05:00",10.2,9.6,0.2,0.0,9,1019.7,1,3,"",96
"2023-05-12 06:06:00",10.2,9.6,0.2,0.0,9,1019.7,1,2,"",96
"2023-05-12 06:07:00",10.2,9.6,0.2,0.0,9,1019.7,2,4,"",96
"2023-05-12 06:08:00",10.2,9.6,0.2,0.0,9,1019.8,2,3,"",96
"2023-05-12 06:09:00",10.2,9.6,0.2,0.0,9,1019.8,2,3,"",96
"2023-05-12 06:10:00",10.2,9.6,0.2,0.0,9,1019.7,2,4,"",96
"2023-05-12 06:11:00",10.2,9.6,0.2,0.0,7,1019.8,1,2,"",96
"2023-05-12 06:12:00",10.2,9.6,0.2,0.0,9,1019.8,1,3,"",96
"2023-05-12 06:13:00",10.2,9.6,0.2,0.0,14,1019.9,1,3,"",96
"2023-05-12 06:14:00",10.2,9.6,0.2,0.0,21,1019.8,2,3,"",96
"2023-05-12 06:15:00",10.3,9.7,0.2,0.0,21,1019.9,1,2,"",96
"2023-05-12 06:16:00",10.3,9.7,0.2,0.0,18,1019.9,1,3,"",96
"2023-05-12 06:17:00",10.3,9.7,0.2,0.0,12,1019.9,1,3,"",96
"2023-05-12 06:18:00",10.3,9.7,0.2,0.0,16,1019.9,1,2,"",96
"2023-05-12 06:19:00",10.3,9.7,0.2,0.0,16,1019.9,2,3,"",96
"2023-05-12 06:20:00",10.3,9.7,0.2,0.0,28,1019.9,2,3,"",96
"2023-05-12 06:21:00",10.3,9.7,0.2,0.0,23,1019.9,1,2,"",96
"2023-05-12 06:22:00",10.3,9.7,0.2,0.0,23,1020.0,1,2,"",96
"2023-05-12 06:23:00",10.3,9.7,0.2,0.0,26,1019.9,1,2,"",96
"2023-05-12 06:24:00",10.3,9.7,0.2,0.0,25,1020.0,2,3,"",96
"2023-05-12 06:25:00",10.3,9.7,0.2,0.0,28,1020.0,1,2,"",96
"2023-05-12 06:26:00",10.3,9.7,0.2,0.0,26,1020.0,2,3,"",96
"2023-05-12 06:27:00",10.3,9.7,0.2,0.0,26,1020.0,1,2,"",96
"2023-05-12 06:28:00",10.3,9.7,0.2,0.0,32,1020.0,2,4,"",96
"2023-05-12 06:29:00",10.3,9.7,0.2,0.0,33,1020.0,2,3,"",96
"2023-05-12 06:30:00",10.3,9.7,0.2,0.0,32,1020.0,1,3,"",96
"2023-05-12 06:31:00",10.3,9.7,0.2,0.0,32,1020.1,2,3,"",96
"2023-05-12 06:32:00",10.3,9.7,0.2,0.0,30,1020.1,1,3,"",96
"2023-05-12 06:33:00",10.3,9.7,0.2,0.0,26,1020.0,1,2,"",96
"2023-05-12 06:34:00",10.3,9.7,0.2,0.0,23,1020.0,2,3,"",96
"2023-05-12 06:35:00",10.3,9.7,0.2,0.0,19,1020.1,2,4,"",96
"2023-05-12 06:36:00",10.2,9.6,0.2,0.0,23,1020.1,2,3,"",96
"2023-05-12 06:37:00",10.2,9.6,0.2,0.0,23,1020.1,2,2,"",96
"2023-05-12 06:38:00",10.2,9.6,0.2,0.0,19,1020.1,1,2,"",96
"2023-05-12 06:39:00",10.2,9.6,0.2,0.0,19,1020.1,2,5,"",96
"2023-05-12 06:40:00",10.2,9.4,0.2,0.0,16,1020.2,3,4,"",95
"2023-05-12 06:41:00",10.2,9.4,0.2,0.0,16,1020.1,1,3,"",95
"2023-05-12 06:42:00",10.1,9.3,0.2,0.0,18,1020.1,1,2,"",95
"2023-05-12 06:43:00",10.2,9.4,0.2,0.0,25,1020.2,1,3,"",95
"2023-05-12 06:44:00",10.1,9.3,0.2,0.0,25,1020.2,2,3,"",95
"2023-05-12 06:45:00",10.1,9.3,0.2,0.0,25,1020.2,1,2,"",95
"2023-05-12 06:46:00",10.2,9.4,0.2,0.0,25,1020.2,1,2,"",95
"2023-05-12 06:47:00",10.2,9.4,0.2,0.0,25,1020.2,1,1,"",95
"2023-05-12 06:48:00",10.2,9.4,0.2,0.0,28,1020.3,1,2,"",95
"2023-05-12 06:49:00",10.2,9.4,0.2,0.0,32,1020.3,1,2,"",95
"2023-05-12 06:50:00",10.2,9.4,0.2,0.0,33,1020.2,1,2,"",95
"2023-05-12 06:51:00",10.2,9.4,0.2,0.0,46,1020.3,1,2,"",95
"2023-05-12 06:52:00",10.2,9.4,0.2,0.0,58,1020.3,3,5,"",95
"2023-05-12 06:53:00",10.2,9.4,0.2,0.0,53,1020.3,2,2,"",95
"2023-05-12 06:54:00",10.2,9.4,0.2,0.0,46,1020.4,1,2,"",95
"2023-05-12 06:55:00",10.2,9.4,0.2,0.0,47,1020.3,2,3,"",95
"2023-05-12 06:56:00",10.2,9.4,0.2,0.0,40,1020.4,1,2,"",95